{"data":{"norad_id":59583,"intl_designator":"2024-076V","name":"STARLINK-31697","alt_names":[],"object_type":"PAYLOAD","status":"ACTIVE","operator":null,"country":"US","launch_date":"2024-04-23","launch_site_code":"AFETR","launch_vehicle":null,"mission":null,"orbit_class":"UNKNOWN","rcs_meters":null,"size_class":null,"mass_kg":null,"dimensions":null,"purposes":["comms"],"wikipedia_slug":null,"has_3d_model":false,"image_url":null,"decayed_at":null,"tle_current":{"epoch":"2026-05-25T02:50:20.794272Z","epoch_age_seconds":64882,"freshness":"FRESH","line1":"1 59583U 24076V   26145.11829623  .00001422  00000+0  61183-4 0  9990","line2":"2 59583  42.9994 297.1709 0001167 274.3858  85.6861 15.27575524118104","mean_motion":15.27575524,"eccentricity":0.0001167,"inclination_deg":42.9994,"raan_deg":297.1709,"arg_perigee_deg":274.3858,"mean_anomaly_deg":85.6861,"bstar":6.1183e-5,"rev_number":11810,"period_min":94.267024927797,"perigee_km":482.2617968451,"apogee_km":483.86320080812,"semimajor_km":6861.1994988266,"source":"CELESTRAK","updated_at":"2026-05-25T13:38:18.988629Z"}}}